Date_and_time,latitude,longitude,wind_speed,RelWindDirFrom,WindDirFrom,air_pressure,air_temperature,relative_humidity,Temp,platform_speed_wrt_ground,air_pressure_at_mean_sea_level,platform_orientation
2019-09-07 00:00,50.630455,-96.98078,9.0,13.1,303,992.31,19.3,41,17.87,0.0,1018.36,0.0
2019-09-07 00:10,50.630455,-96.9807783333333,8.6,12.5,319,992.42,19.0,43,17.87,0.0,1018.49,0.0
2019-09-07 00:20,50.6304466666667,-96.9807716666667,8.3,13.1,336,992.53,18.8,47,17.86,0.0,1018.63,0.0
2019-09-07 00:30,50.6304533333333,-96.98078,8.9,12.8,329,992.62,18.5,49,17.85,0.0,1018.75,0.0
2019-09-07 00:40,50.6304533333333,-96.9807766666667,9.1,13.3,329,992.65,18.1,50,17.86,0.0,1018.77,0.0
2019-09-07 00:50,50.6304533333333,-96.9807766666667,9.8,18.1,343,992.77,17.8,53,17.86,0.0,1018.91,0.0
2019-09-07 01:00,50.6304516666667,-96.98078,18.0,22.7,4,992.68,16.6,77,17.85,0.0,1018.88,0.0
2019-09-07 01:10,50.63045,-96.9807816666667,18.1,21.2,4,992.82,16.3,79,17.84,0.0,1019.05,0.0
2019-09-07 01:20,50.63045,-96.9807816666667,19.8,22.7,6,992.85,16.0,78,17.84,0.0,1019.09,0.0
2019-09-07 01:30,50.6304483333333,-96.9807816666667,20.1,23.7,6,992.97,15.7,78,17.82,0.0,1019.23,0.0
2019-09-07 01:40,50.6304483333333,-96.9807816666667,16.3,20.9,355,993.32,15.4,75,17.79,0.0,1019.63,0.0
2019-09-07 01:50,50.6304466666667,-96.98078,16.4,21.5,357,993.50,15.2,78,17.76,0.0,1019.84,0.0
2019-09-07 02:00,50.6304466666667,-96.98078,14.7,20.6,350,993.75,14.8,76,17.72,0.0,1020.13,270.0
2019-09-07 02:10,50.6304483333333,-96.98078,13.0,20.1,352,993.94,14.5,75,17.69,0.0,1020.34,270.0
2019-09-07 02:20,50.6304483333333,-96.98078,13.0,17.6,346,993.98,14.2,74,17.66,0.0,1020.42,270.0
2019-09-07 02:30,50.6304483333333,-96.98078,12.9,17.7,345,994.10,14.0,74,17.64,0.0,1020.57,270.0
2019-09-07 02:40,50.63045,-96.9807816666667,14.4,20.1,347,994.14,13.8,73,17.63,0.0,1020.63,270.0
2019-09-07 02:50,50.63045,-96.98078,12.6,17.7,345,994.27,13.6,73,17.62,0.0,1020.83,270.0
2019-09-07 03:00,50.6304566666667,-96.98078,12.7,19.3,342,994.26,13.4,72,17.58,0.0,1020.84,0.0
2019-09-07 03:10,50.6304516666667,-96.980775,12.9,18.5,342,994.32,13.1,72,17.54,0.0,1020.92,0.0
2019-09-07 03:20,50.6304483333333,-96.9807733333333,11.5,19.2,339,994.45,12.9,71,17.51,0.0,1021.09,0.0
2019-09-07 03:30,50.6304483333333,-96.9807733333333,10.2,16.1,339,994.62,12.7,72,17.48,0.0,1021.28,0.0
2019-09-07 03:40,50.6304483333333,-96.980775,9.8,13.7,335,994.75,12.5,70,17.47,0.0,1021.44,0.0
2019-09-07 03:50,50.63045,-96.9807766666667,9.0,14.2,332,994.82,12.1,70,17.45,0.0,1021.55,0.0
2019-09-07 04:00,50.63045,-96.9807766666667,9.5,12.6,331,994.73,12.0,70,17.44,0.0,1021.48,90.0
2019-09-07 04:10,50.63045,-96.9807766666667,7.5,10.6,321,994.74,11.7,71,17.45,0.0,1021.52,90.0
2019-09-07 04:20,50.630455,-96.9807783333333,6.4,9.3,308,994.81,11.3,72,17.46,0.0,1021.62,90.0
2019-09-07 04:30,50.6304533333333,-96.980775,5.8,10.3,312,994.85,11.1,74,17.48,0.0,1021.68,90.0
2019-09-07 04:40,50.630455,-96.98078,7.1,10.9,324,994.71,11.1,74,17.49,0.0,1021.54,90.0
2019-09-07 04:50,50.6304566666667,-96.9807833333333,8.6,12.1,325,994.66,11.1,72,17.51,0.0,1021.49,90.0
2019-09-07 05:00,50.630455,-96.9807783333333,7.5,11.8,318,994.81,11.0,72,17.50,0.0,1021.67,38.0
2019-09-07 05:10,50.6304533333333,-96.9807783333333,7.6,12.1,317,994.74,10.8,73,17.50,0.0,1021.62,38.0
2019-09-07 05:20,50.63045,-96.9807633333333,8.1,11.9,313,994.80,10.5,74,17.49,0.0,1021.70,38.0
2019-09-07 05:30,50.6304516666667,-96.9807733333333,7.0,10.9,305,994.94,10.2,76,17.53,0.0,1021.87,38.0
2019-09-07 05:40,50.6304533333333,-96.9807783333333,6.3,8.9,306,995.01,9.9,78,17.57,0.0,1021.97,38.0
2019-09-07 05:50,50.6304533333333,-96.980775,6.8,10.6,315,995.03,10.0,77,17.55,0.0,1022.00,38.0
2019-09-07 06:00,50.63045,-96.980775,7.0,10.7,301,995.11,9.9,76,17.55,0.0,1022.10,90.0
2019-09-07 06:10,50.630445,-96.9807616666667,5.6,9.3,310,995.24,9.6,79,17.54,0.0,1022.26,90.0
2019-09-07 06:20,50.6304566666667,-96.98077,7.6,12.8,320,995.07,9.6,78,17.51,0.0,1022.10,90.0
2019-09-07 06:30,50.6304516666667,-96.9807733333333,6.1,9.4,293,995.42,9.2,80,17.50,0.0,1022.48,90.0
2019-09-07 06:40,50.6304516666667,-96.980775,6.0,9.4,298,995.44,8.9,80,17.49,0.0,1022.51,90.0
2019-09-07 06:50,50.630455,-96.9807783333333,5.2,7.6,288,995.54,8.7,82,17.48,0.0,1022.63,90.0
2019-09-07 07:00,50.630455,-96.980775,6.0,9.2,310,995.55,8.9,80,17.46,0.0,1022.65,90.0
2019-09-07 07:10,50.63046,-96.9807783333333,7.2,10.1,311,995.62,9.2,77,17.45,0.0,1022.71,90.0
2019-09-07 07:20,50.6304533333333,-96.980775,7.2,11.2,314,995.63,9.2,77,17.44,0.0,1022.74,90.0
2019-09-07 07:30,50.6304566666667,-96.9807733333333,7.5,10.7,308,995.59,8.9,78,17.45,0.0,1022.73,90.0
2019-09-07 07:40,50.6304516666667,-96.9807866666667,8.0,11.8,314,995.58,8.9,77,17.44,0.0,1022.71,90.0
2019-09-07 07:50,50.6304533333333,-96.9807866666667,7.0,10.4,306,995.73,8.8,77,17.44,0.0,1022.87,90.0
2019-09-07 08:00,50.6304583333333,-96.9807883333333,6.7,9.7,304,995.83,8.8,77,17.44,0.0,1022.99,347.4
2019-09-07 08:10,50.630455,-96.9807833333333,7.0,10.3,303,995.95,8.6,77,17.43,0.0,1023.13,347.4
2019-09-07 08:20,50.6304666666667,-96.98079,6.9,10.6,305,996.09,8.6,76,17.42,0.0,1023.29,347.4
2019-09-07 08:30,50.6304583333333,-96.98078,6.7,10.0,306,996.16,8.6,76,17.42,0.0,1023.38,347.4
2019-09-07 08:40,50.630455,-96.9807733333333,6.7,10.1,301,996.23,8.6,75,17.41,0.0,1023.46,347.4
2019-09-07 08:50,50.6304516666667,-96.9807766666667,6.5,9.4,302,996.25,8.6,76,17.40,0.0,1023.47,347.4
2019-09-07 09:00,50.63045,-96.9807733333333,7.4,10.9,309,996.19,8.5,76,17.39,0.0,1023.40,0.0
2019-09-07 09:10,50.6304466666667,-96.9807733333333,8.1,11.4,309,996.21,8.5,76,17.39,0.0,1023.42,0.0
2019-09-07 09:20,50.6304466666667,-96.980775,7.9,11.5,309,996.30,8.4,77,17.38,0.0,1023.53,0.0
2019-09-07 09:30,50.6304466666667,-96.9807766666667,8.5,12.9,316,996.14,8.4,77,17.37,0.0,1023.37,0.0
2019-09-07 09:40,50.6304466666667,-96.9807766666667,8.1,12.6,319,996.13,8.3,79,17.36,0.0,1023.36,0.0
2019-09-07 09:50,50.6304466666667,-96.9807783333333,9.2,12.4,321,996.10,8.3,80,17.35,0.0,1023.34,0.0
2019-09-07 10:00,50.6304466666667,-96.9807783333333,7.9,11.4,319,996.22,8.0,81,17.32,0.0,1023.48,240.8
2019-09-07 10:10,50.630445,-96.9807766666667,7.5,11.3,317,996.27,7.9,81,17.31,0.0,1023.53,240.8
2019-09-07 10:20,50.630445,-96.9807766666667,7.7,10.9,316,996.31,7.8,82,17.30,0.0,1023.58,240.8
2019-09-07 10:30,50.6304516666667,-96.980765,7.0,10.5,315,996.35,7.6,84,17.29,0.0,1023.62,240.8
2019-09-07 10:40,50.630445,-96.9807616666667,6.5,8.9,309,996.41,7.5,85,17.28,0.0,1023.70,240.8
2019-09-07 10:50,50.630435,-96.980765,6.9,9.0,307,996.33,7.3,86,17.28,0.0,1023.63,240.8
2019-09-07 11:00,50.6304483333333,-96.9807716666667,7.4,10.2,303,996.33,7.2,86,17.27,0.0,1023.64,130.6
2019-09-07 11:10,50.6304483333333,-96.980775,7.2,10.1,307,996.34,7.1,88,17.27,0.0,1023.66,130.6
2019-09-07 11:20,50.6304466666667,-96.9807766666667,6.6,9.9,315,996.38,7.1,89,17.27,0.0,1023.70,130.6
2019-09-07 11:30,50.6304466666667,-96.9807766666667,6.8,10.3,314,996.31,7.2,89,17.26,0.0,1023.63,130.6
2019-09-07 11:40,50.6304466666667,-96.9807766666667,6.3,9.6,308,996.34,7.1,90,17.24,0.0,1023.67,130.6
2019-09-07 11:50,50.6304483333333,-96.980775,7.2,9.1,302,996.40,6.8,90,17.25,0.0,1023.75,130.6
2019-09-07 12:00,50.6304466666667,-96.9807733333333,7.1,9.1,302,996.48,6.8,90,17.25,0.0,1023.84,360.0
2019-09-07 12:10,50.6304466666667,-96.9807733333333,7.8,11.7,311,996.40,6.8,92,17.26,0.0,1023.76,360.0
2019-09-07 12:20,50.6304466666667,-96.9807716666667,7.7,11.3,307,996.37,6.8,92,17.25,0.0,1023.74,360.0
2019-09-07 12:30,50.6304533333333,-96.9807866666667,7.8,10.5,304,996.45,6.9,91,17.24,0.0,1023.83,360.0
2019-09-07 12:40,50.63047,-96.980795,7.3,10.3,304,996.55,6.9,91,17.21,0.0,1023.93,360.0
2019-09-07 12:50,50.6304383333333,-96.98077,7.6,11.1,311,996.49,7.1,91,17.15,0.0,1023.87,360.0
2019-09-07 13:00,50.6304366666667,-96.9807733333333,7.5,10.2,314,996.47,7.3,91,17.11,0.0,1023.84,143.4
2019-09-07 13:10,50.63044,-96.9807733333333,7.1,10.1,316,996.48,7.6,91,17.09,0.0,1023.84,143.4
2019-09-07 13:20,50.6304333333333,-96.980765,6.6,10.2,314,996.45,7.7,91,17.07,0.0,1023.80,143.4
2019-09-07 13:30,50.63045,-96.9807883333333,6.4,8.6,310,996.53,7.8,90,17.06,0.0,1023.89,143.4
2019-09-07 13:40,50.6304483333333,-96.9807783333333,5.9,8.2,307,996.65,8.0,90,17.04,0.0,1024.01,143.4
2019-09-07 13:50,50.6304483333333,-96.980775,5.9,8.3,309,996.65,8.3,89,17.03,0.0,1024.00,143.4
2019-09-07 14:00,50.63045,-96.980775,6.3,9.4,313,996.64,8.7,88,17.02,0.0,1023.96,360.0
2019-09-07 14:10,50.6304483333333,-96.980775,6.8,12.5,315,996.67,9.1,86,17.00,0.0,1023.97,360.0
2019-09-07 14:20,50.6304466666667,-96.980775,6.8,9.6,322,996.78,9.5,85,16.99,0.0,1024.06,360.0
2019-09-07 14:30,50.630445,-96.980775,6.7,9.8,323,996.85,9.8,83,16.98,0.0,1024.12,360.0
2019-09-07 14:40,50.6304583333333,-96.9807683333333,5.6,9.1,331,996.99,10.0,83,16.98,0.0,1024.24,360.0
2019-09-07 14:50,50.6304416666667,-96.9807616666667,5.9,9.8,329,997.05,10.2,82,16.98,0.0,1024.29,360.0
2019-09-07 15:00,50.63044,-96.9807683333333,8.1,14.7,355,997.10,10.5,82,16.98,0.0,1024.32,131.7
2019-09-07 15:10,50.6304416666667,-96.980775,11.5,16.6,13,997.09,11.1,78,16.98,0.0,1024.27,131.7
2019-09-07 15:20,50.630435,-96.9807766666667,12.1,15.7,17,997.07,11.1,72,16.98,0.0,1024.25,131.7
2019-09-07 15:30,50.6304533333333,-96.9807883333333,11.3,14.0,17,997.18,11.2,75,16.97,0.0,1024.34,131.7
2019-09-07 15:40,50.630455,-96.9807916666667,11.9,14.8,18,997.22,11.2,77,16.95,0.0,1024.36,131.7
2019-09-07 15:50,50.6304383333333,-96.9807983333333,12.2,15.7,17,997.23,11.2,74,16.93,0.0,1024.36,131.7
2019-09-07 16:00,50.63045,-96.9807916666667,12.2,15.6,19,997.26,11.1,73,16.91,0.0,1024.38,328.9
2019-09-07 16:10,50.6304483333333,-96.98079,11.4,14.5,11,997.27,11.0,72,16.91,0.0,1024.37,328.9
2019-09-07 16:20,50.6304483333333,-96.9807866666667,10.7,14.1,17,997.35,11.0,71,16.91,0.0,1024.44,328.9
2019-09-07 16:30,50.6304483333333,-96.9807883333333,10.5,14.3,15,997.34,11.1,71,16.91,0.0,1024.41,328.9
2019-09-07 16:40,50.6304466666667,-96.9807866666667,10.2,12.9,17,997.38,11.2,71,16.91,0.0,1024.45,328.9
2019-09-07 16:50,50.630445,-96.9807866666667,9.6,13.0,13,997.39,11.1,70,16.91,0.0,1024.44,328.9
2019-09-07 17:00,50.6304483333333,-96.980785,9.2,12.8,21,997.45,11.2,69,16.89,0.0,1024.47,234.7
2019-09-07 17:10,50.63045,-96.98078,9.2,13.4,25,997.40,11.4,69,16.89,0.0,1024.40,234.7
2019-09-07 17:20,50.6304483333333,-96.9807783333333,9.0,12.1,20,997.26,11.3,70,16.89,0.0,1024.27,234.7
2019-09-07 17:30,50.6304466666667,-96.980775,9.7,13.3,13,997.21,11.4,71,16.89,0.0,1024.20,234.7
2019-09-07 17:40,50.6304466666667,-96.9807783333333,9.4,12.5,14,997.19,11.4,70,16.89,0.0,1024.18,234.7
2019-09-07 17:50,50.6304433333333,-96.9807783333333,8.6,11.7,9,997.18,11.5,69,16.90,0.0,1024.18,234.7
2019-09-07 18:00,50.630435,-96.9807866666667,9.0,12.6,7,997.12,11.5,70,16.93,0.0,1024.12,252.3
2019-09-07 18:10,50.6304383333333,-96.9807883333333,9.1,12.7,23,997.01,11.5,70,16.96,0.0,1024.01,252.3
2019-09-07 18:20,50.6304333333333,-96.9807766666667,9.0,12.3,9,996.90,11.5,70,16.98,0.0,1023.89,252.3
2019-09-07 18:30,50.6304383333333,-96.9807683333333,9.9,15.0,17,996.84,11.5,71,16.98,0.0,1023.82,252.3
2019-09-07 18:40,50.6304416666667,-96.980775,8.5,12.0,19,996.84,11.6,70,16.99,0.0,1023.82,252.3
2019-09-07 18:50,50.6304416666667,-96.9807783333333,9.5,13.5,21,996.72,11.7,71,16.99,0.0,1023.69,252.3
2019-09-07 19:00,50.6304416666667,-96.9807816666667,8.7,12.9,12,996.70,11.8,72,17.00,0.0,1023.66,360.0
2019-09-07 19:10,50.6304433333333,-96.9807816666667,11.3,14.3,23,996.59,11.8,71,17.00,0.0,1023.54,360.0
2019-09-07 19:20,50.6304433333333,-96.9807816666667,10.0,14.7,29,996.61,11.8,72,17.04,0.0,1023.56,360.0
2019-09-07 19:30,50.6304433333333,-96.9807816666667,10.7,13.2,26,996.52,11.9,71,17.08,0.0,1023.47,360.0
2019-09-07 19:40,50.6304433333333,-96.9807816666667,10.3,14.2,24,996.55,11.9,70,17.12,0.0,1023.49,360.0
2019-09-07 19:50,50.630475,-96.980795,10.1,14.2,27,996.56,11.9,71,17.16,0.0,1023.50,360.0
2019-09-07 20:00,50.6304466666667,-96.9807883333333,10.0,13.0,20,996.59,12.0,70,17.17,0.0,1023.53,270.0
2019-09-07 20:10,50.63045,-96.980785,9.6,12.5,20,996.56,12.1,71,17.18,0.0,1023.49,270.0
2019-09-07 20:20,50.6304483333333,-96.9807783333333,10.0,13.5,12,996.55,12.2,70,17.19,0.0,1023.47,270.0
2019-09-07 20:30,50.6304483333333,-96.9807783333333,10.3,13.4,12,996.45,12.3,68,17.20,0.0,1023.37,270.0
2019-09-07 20:40,50.6304466666667,-96.9807766666667,10.2,14.0,11,996.45,12.5,66,17.16,0.0,1023.35,270.0
2019-09-07 20:50,50.63046,-96.980775,9.2,12.0,10,996.50,12.6,67,17.11,0.0,1023.39,270.0
2019-09-07 21:00,50.6304333333333,-96.9808016666667,9.4,11.8,14,996.43,12.7,66,17.09,0.0,1023.31,240.8
2019-09-07 21:10,50.6304516666667,-96.9807683333333,9.2,12.0,12,996.33,12.8,65,17.11,0.0,1023.21,240.8
2019-09-07 21:20,50.6304566666667,-96.9807716666667,9.7,12.5,11,996.28,12.9,65,17.11,0.0,1023.14,240.8
2019-09-07 21:30,50.630445,-96.980765,9.2,12.0,8,996.25,13.1,65,17.13,0.0,1023.11,240.8
2019-09-07 21:40,50.630445,-96.9807666666667,9.0,11.3,9,996.25,13.2,64,17.15,0.0,1023.10,240.8
2019-09-07 21:50,50.6304466666667,-96.9807683333333,8.6,10.6,8,996.30,13.4,63,17.19,0.0,1023.14,240.8
2019-09-07 22:00,50.6304483333333,-96.98077,7.7,9.5,6,996.25,13.5,63,17.21,0.0,1023.08,66.4
2019-09-07 22:10,50.6304483333333,-96.98077,7.4,9.4,9,996.18,13.7,63,17.20,0.0,1022.99,66.4
2019-09-07 22:20,50.6304483333333,-96.9807716666667,6.7,9.3,8,996.15,13.8,61,17.18,0.0,1022.95,66.4
2019-09-07 22:30,50.6304466666667,-96.9807733333333,7.2,9.6,5,996.15,13.8,61,17.16,0.0,1022.94,66.4
2019-09-07 22:40,50.6304483333333,-96.98077,7.3,9.9,8,996.15,13.9,60,17.14,0.0,1022.93,66.4
2019-09-07 22:50,50.6304483333333,-96.9807733333333,6.3,8.1,1,996.14,14.1,60,17.13,0.0,1022.90,66.4
2019-09-07 23:00,50.6304466666667,-96.9807716666667,6.7,9.1,4,996.02,14.2,60,17.13,0.0,1022.77,90.0
2019-09-07 23:10,50.6304483333333,-96.9807733333333,5.9,8.5,351,995.95,14.3,61,17.13,0.0,1022.69,90.0
2019-09-07 23:20,50.6304483333333,-96.980775,6.7,8.6,0,995.94,14.4,60,17.15,0.0,1022.67,90.0
2019-09-07 23:30,50.63045,-96.980775,6.0,8.4,356,995.86,14.3,59,17.16,0.0,1022.59,90.0
